| time (UTC) | temp F | wind direction | speed MPH | gust MPH | rain 1hr in | rain 24hr in | rain mn in | humidity % | barometer mb |
| 20260507083249 | 58 | 96 | 3.0 | 12.0 | 0.00 | 0.00 | 0.00 | 67 | 1014.9 |
| 20260507081749 | 58 | 105 | 4.0 | 8.0 | 0.00 | 0.00 | 0.00 | 71 | 1014.8 |
| 20260507080749 | 58 | 98 | 3.0 | 9.0 | 0.00 | 0.00 | 0.00 | 70 | 1014.8 |
| 20260507080249 | 57 | 76 | 2.0 | 10.0 | 0.00 | 0.00 | 0.00 | 69 | 1014.7 |
| 20260507074749 | 57 | 42 | 6.0 | 10.0 | 0.00 | 0.00 | 0.00 | 67 | 1014.6 |
| 20260507074249 | 57 | 102 | 3.0 | 8.0 | 0.00 | 0.00 | 0.00 | 70 | 1014.5 |
| 20260507073749 | 56 | 66 | 2.0 | 7.0 | 0.00 | 0.00 | 0.00 | 72 | 1014.4 |
| 20260507073249 | 56 | 102 | 3.0 | 8.0 | 0.00 | 0.00 | 0.00 | 70 | 1014.4 |
| 20260507071749 | 55 | 85 | 3.0 | 8.0 | 0.00 | 0.00 | 0.00 | 74 | 1014.4 |
| 20260507071249 | 55 | 47 | 2.0 | 7.0 | 0.00 | 0.00 | 0.00 | 73 | 1014.4 |
| 20260507070749 | 55 | 79 | 3.0 | 8.0 | 0.00 | 0.00 | 0.00 | 74 | 1014.3 |
| 20260507070249 | 54 | 99 | 5.0 | 9.0 | 0.00 | 0.00 | 0.00 | 74 | 1014.3 |
| 20260507064750 | 55 | 73 | 2.0 | 7.0 | 0.00 | 0.00 | 0.00 | 83 | 1014.2 |
| 20260507064249 | 54 | 66 | 2.0 | 5.0 | 0.00 | 0.00 | 0.00 | 85 | 1014.2 |
| 20260507063749 | 53 | 65 | 3.0 | 10.0 | 0.00 | 0.00 | 0.00 | 87 | 1014.1 |
| 20260507063249 | 52 | 55 | 2.0 | 9.0 | 0.00 | 0.00 | 0.00 | 90 | 1014.0 |
| 20260507061749 | 49 | 108 | 4.0 | 8.0 | 0.00 | 0.00 | 0.00 | 93 | 1013.9 |
| 20260507061249 | 49 | 103 | 2.0 | 7.0 | 0.00 | 0.00 | 0.00 | 93 | 1013.9 |
| 20260507060750 | 48 | 119 | 3.0 | 8.0 | 0.00 | 0.00 | 0.00 | 93 | 1013.8 |
| 20260507060249 | 47 | 98 | 3.0 | 7.0 | 0.00 | 0.00 | 0.00 | 93 | 1013.8 |
| 20260507054749 | 46 | 93 | 1.0 | 3.0 | 0.00 | 0.00 | 0.00 | 93 | 1013.8 |
| 20260507054249 | 46 | 82 | 1.0 | 6.0 | 0.00 | 0.00 | 0.00 | 93 | 1013.8 |
| 20260507053249 | 45 | 49 | 1.0 | 5.0 | 0.00 | 0.00 | 0.00 | 93 | 1013.6 |
| 20260507051749 | 44 | 94 | 1.0 | 5.0 | 0.00 | 0.00 | 0.00 | 93 | 1013.5 |
| 20260507051251 | 44 | 92 | 1.0 | 5.0 | 0.00 | 0.00 | 0.00 | 93 | 1013.4 |
| 20260507050750 | 44 | 101 | 1.0 | 3.0 | 0.00 | 0.00 | 0.00 | 93 | 1013.4 |
| 20260507050249 | 44 | 102 | 1.0 | 7.0 | 0.00 | 0.00 | 0.00 | 93 | 1013.4 |
| 20260507044750 | 43 | 66 | 1.0 | 3.0 | 0.00 | 0.00 | 0.00 | 93 | 1013.2 |
| 20260507044249 | 43 | 90 | 0.0 | 3.0 | 0.00 | 0.00 | 0.00 | 93 | 1013.2 |
| 20260507043749 | 43 | 93 | 1.0 | 7.0 | 0.00 | 0.00 | 0.00 | 93 | 1013.1 |
| 20260507041749 | 43 | 95 | 2.0 | 5.0 | 0.00 | 0.00 | 0.00 | 92 | 1013.0 |
| 20260507041249 | 43 | 97 | 2.0 | 3.0 | 0.00 | 0.00 | 0.00 | 93 | 1012.9 |
| 20260507040750 | 43 | 98 | 2.0 | 7.0 | 0.00 | 0.00 | 0.00 | 93 | 1012.9 |
| 20260507034750 | 42 | 76 | 2.0 | 5.0 | 0.00 | 0.00 | 0.00 | 92 | 1012.8 |
| 20260507034250 | 42 | 93 | 1.0 | 7.0 | 0.00 | 0.00 | 0.00 | 92 | 1012.7 |
| 20260507033249 | 42 | 97 | 1.0 | 5.0 | 0.00 | 0.00 | 0.00 | 92 | 1012.6 |
| 20260507031250 | 42 | 107 | 1.0 | 7.0 | 0.00 | 0.00 | 0.00 | 92 | 1012.6 |
| 20260507030750 | 42 | 105 | 1.0 | 7.0 | 0.00 | 0.00 | 0.00 | 92 | 1012.5 |
| 20260507024750 | 42 | 61 | 1.0 | 5.0 | 0.00 | 0.00 | 0.00 | 92 | 1012.4 |
| 20260507024250 | 42 | 94 | 1.0 | 3.0 | 0.00 | 0.00 | 0.00 | 92 | 1012.4 |
| 20260507023750 | 43 | 99 | 2.0 | 8.0 | 0.00 | 0.00 | 0.00 | 92 | 1012.4 |
| 20260507023250 | 43 | 56 | 1.0 | 7.0 | 0.00 | 0.00 | 0.00 | 92 | 1012.3 |
| 20260507021750 | 43 | 85 | 2.0 | 8.0 | 0.00 | 0.00 | 0.00 | 92 | 1012.3 |
| 20260507020750 | 43 | 84 | 3.0 | 7.0 | 0.00 | 0.00 | 0.00 | 92 | 1012.2 |
| 20260507020250 | 43 | 98 | 2.0 | 7.0 | 0.00 | 0.00 | 0.00 | 91 | 1012.2 |
| 20260507014750 | 44 | 62 | 2.0 | 5.0 | 0.00 | 0.00 | 0.00 | 92 | 1012.1 |
| 20260507014250 | 44 | 96 | 2.0 | 7.0 | 0.00 | 0.00 | 0.00 | 92 | 1012.1 |
| 20260507013750 | 44 | 101 | 1.0 | 5.0 | 0.00 | 0.00 | 0.00 | 91 | 1012.1 |
| 20260507013250 | 44 | 97 | 3.0 | 8.0 | 0.00 | 0.00 | 0.00 | 91 | 1012.0 |
| 20260507011750 | 44 | 99 | 2.0 | 7.0 | 0.00 | 0.00 | 0.00 | 91 | 1012.0 |
| 20260507011250 | 44 | 23 | 1.0 | 7.0 | 0.00 | 0.00 | 0.00 | 91 | 1012.0 |
| 20260507010750 | 44 | 72 | 2.0 | 5.0 | 0.00 | 0.00 | 0.00 | 91 | 1012.0 |
| 20260507004751 | 43 | 38 | 2.0 | 5.0 | 0.00 | 0.00 | 0.00 | 91 | 1011.9 |
| 20260507004251 | 43 | 24 | 2.0 | 7.0 | 0.00 | 0.00 | 0.00 | 91 | 1011.9 |
| 20260507003250 | 43 | 101 | 2.0 | 7.0 | 0.00 | 0.00 | 0.00 | 90 | 1011.8 |
| 20260507001750 | 44 | 76 | 2.0 | 5.0 | 0.00 | 0.00 | 0.00 | 90 | 1011.7 |
| 20260507001250 | 44 | 51 | 2.0 | 8.0 | 0.00 | 0.00 | 0.00 | 90 | 1011.7 |
| 20260507000251 | 44 | 88 | 1.0 | 8.0 | 0.00 | 0.00 | 0.00 | 90 | 1011.7 |
| 20260506234751 | 44 | 74 | 2.0 | 7.0 | 0.00 | 0.00 | 0.00 | 90 | 1011.7 |
| 20260506234250 | 44 | 86 | 2.0 | 7.0 | 0.00 | 0.00 | 0.00 | 90 | 1011.7 |
| 20260506233251 | 44 | 87 | 2.0 | 9.0 | 0.00 | 0.00 | 0.00 | 90 | 1011.7 |
| 20260506231750 | 44 | 71 | 2.0 | 8.0 | 0.00 | 0.00 | 0.00 | 90 | 1011.6 |
| 20260506231251 | 44 | 72 | 2.0 | 7.0 | 0.00 | 0.00 | 0.00 | 90 | 1011.6 |
| 20260506224751 | 45 | 96 | 3.0 | 8.0 | 0.00 | 0.00 | 0.00 | 89 | 1011.5 |
| 20260506224251 | 45 | 87 | 2.0 | 7.0 | 0.00 | 0.00 | 0.00 | 89 | 1011.4 |
| 20260506223751 | 45 | 80 | 3.0 | 7.0 | 0.00 | 0.00 | 0.00 | 89 | 1011.4 |
| 20260506223250 | 45 | 97 | 1.0 | 9.0 | 0.00 | 0.00 | 0.00 | 89 | 1011.4 |
| 20260506221751 | 45 | 103 | 3.0 | 7.0 | 0.00 | 0.00 | 0.00 | 89 | 1011.3 |
| 20260506220251 | 46 | 78 | 1.0 | 10.0 | 0.00 | 0.00 | 0.00 | 88 | 1011.3 |
| 20260506214251 | 46 | 84 | 2.0 | 9.0 | 0.00 | 0.00 | 0.00 | 88 | 1011.2 |
| 20260506213751 | 46 | 89 | 2.0 | 13.0 | 0.00 | 0.00 | 0.00 | 88 | 1011.2 |
| 20260506213251 | 46 | 46 | 3.0 | 10.0 | 0.00 | 0.00 | 0.00 | 88 | 1011.1 |
| 20260506211751 | 47 | 98 | 3.0 | 9.0 | 0.00 | 0.00 | 0.00 | 87 | 1011.1 |
| 20260506211251 | 47 | 95 | 6.0 | 12.0 | 0.00 | 0.00 | 0.00 | 87 | 1011.0 |
| 20260506210751 | 47 | 61 | 3.0 | 10.0 | 0.00 | 0.00 | 0.00 | 87 | 1010.9 |
| 20260506210251 | 47 | 116 | 4.0 | 15.0 | 0.00 | 0.00 | 0.00 | 87 | 1010.9 |
| 20260506204252 | 47 | 97 | 6.0 | 12.0 | 0.00 | 0.00 | 0.00 | 86 | 1010.8 |
| 20260506203751 | 48 | 78 | 5.0 | 13.0 | 0.00 | 0.00 | 0.00 | 86 | 1010.7 |
| 20260506203251 | 48 | 53 | 3.0 | 16.0 | 0.00 | 0.00 | 0.00 | 86 | 1010.7 |
| 20260506201251 | 48 | 92 | 5.0 | 9.0 | 0.00 | 0.00 | 0.00 | 85 | 1010.6 |
| 20260506200751 | 48 | 78 | 6.0 | 13.0 | 0.00 | 0.00 | 0.00 | 84 | 1010.6 |
| 20260506200252 | 49 | 57 | 5.0 | 15.0 | 0.00 | 0.00 | 0.00 | 84 | 1010.5 |
| 20260506194751 | 49 | 101 | 6.0 | 15.0 | 0.00 | 0.00 | 0.00 | 82 | 1010.4 |
| 20260506194251 | 49 | 93 | 6.0 | 15.0 | 0.00 | 0.00 | 0.00 | 82 | 1010.4 |
| 20260506193751 | 49 | 90 | 8.0 | 14.0 | 0.00 | 0.00 | 0.00 | 82 | 1010.4 |
| 20260506193252 | 49 | 87 | 5.0 | 14.0 | 0.00 | 0.00 | 0.00 | 81 | 1010.4 |
| 20260506191751 | 50 | 77 | 4.0 | 9.0 | 0.00 | 0.00 | 0.00 | 80 | 1010.2 |
| 20260506191251 | 50 | 113 | 6.0 | 13.0 | 0.00 | 0.00 | 0.00 | 80 | 1010.1 |
| 20260506190751 | 50 | 111 | 5.0 | 12.0 | 0.00 | 0.00 | 0.00 | 80 | 1010.0 |
| 20260506190252 | 50 | 88 | 9.0 | 15.0 | 0.00 | 0.00 | 0.00 | 80 | 1009.9 |
| 20260506184751 | 51 | 88 | 7.0 | 13.0 | 0.00 | 0.00 | 0.00 | 79 | 1009.8 |
| 20260506184252 | 51 | 112 | 5.0 | 9.0 | 0.00 | 0.00 | 0.00 | 79 | 1009.8 |
| 20260506183252 | 51 | 98 | 6.0 | 14.0 | 0.00 | 0.00 | 0.00 | 79 | 1009.7 |
| 20260506181751 | 52 | 104 | 6.0 | 12.0 | 0.00 | 0.00 | 0.00 | 78 | 1009.5 |
| 20260506180252 | 53 | 90 | 2.0 | 9.0 | 0.00 | 0.00 | 0.00 | 76 | 1009.2 |
| 20260506174752 | 53 | 76 | 3.0 | 7.0 | 0.00 | 0.00 | 0.00 | 74 | 1009.2 |
| 20260506174251 | 53 | 51 | 2.0 | 9.0 | 0.00 | 0.00 | 0.00 | 73 | 1009.1 |
| 20260506173752 | 53 | 26 | 2.0 | 8.0 | 0.00 | 0.00 | 0.00 | 72 | 1009.1 |
| 20260506173252 | 54 | 61 | 3.0 | 10.0 | 0.00 | 0.00 | 0.00 | 71 | 1009.1 |
| 20260506171752 | 54 | 76 | 2.0 | 7.0 | 0.00 | 0.00 | 0.00 | 70 | 1008.9 |
| 20260506171251 | 55 | 65 | 2.0 | 7.0 | 0.00 | 0.00 | 0.00 | 69 | 1008.9 |
| 20260506170752 | 55 | 33 | 3.0 | 10.0 | 0.00 | 0.00 | 0.00 | 69 | 1008.9 |
| 20260506164752 | 56 | 27 | 4.0 | 10.0 | 0.00 | 0.00 | 0.00 | 67 | 1008.8 |
| 20260506164252 | 56 | 67 | 3.0 | 8.0 | 0.00 | 0.00 | 0.00 | 68 | 1008.8 |
| 20260506163752 | 57 | 55 | 3.0 | 8.0 | 0.00 | 0.00 | 0.00 | 66 | 1008.8 |
| 20260506163252 | 57 | 40 | 3.0 | 9.0 | 0.00 | 0.00 | 0.00 | 64 | 1008.8 |
| 20260506161752 | 58 | 74 | 3.0 | 9.0 | 0.00 | 0.00 | 0.00 | 63 | 1008.8 |
| 20260506161252 | 59 | 105 | 3.0 | 10.0 | 0.00 | 0.00 | 0.00 | 63 | 1008.7 |
| 20260506160752 | 58 | 37 | 3.0 | 9.0 | 0.00 | 0.00 | 0.00 | 63 | 1008.8 |
| 20260506160252 | 58 | 48 | 3.0 | 8.0 | 0.00 | 0.00 | 0.00 | 62 | 1008.7 |
| 20260506154752 | 58 | 36 | 2.0 | 7.0 | 0.00 | 0.00 | 0.00 | 59 | 1008.8 |
| 20260506154252 | 59 | 60 | 3.0 | 7.0 | 0.00 | 0.00 | 0.00 | 57 | 1008.8 |
| 20260506153752 | 58 | 32 | 4.0 | 9.0 | 0.00 | 0.00 | 0.00 | 55 | 1008.8 |
| 20260506153252 | 58 | 37 | 3.0 | 14.0 | 0.00 | 0.00 | 0.00 | 56 | 1008.8 |
| 20260506151752 | 59 | 33 | 3.0 | 9.0 | 0.00 | 0.00 | 0.00 | 55 | 1008.8 |
| 20260506150752 | 59 | 23 | 3.0 | 12.0 | 0.00 | 0.00 | 0.00 | 55 | 1008.8 |
| 20260506150252 | 58 | 48 | 3.0 | 12.0 | 0.00 | 0.00 | 0.00 | 53 | 1008.8 |
| 20260506144752 | 58 | 37 | 3.0 | 9.0 | 0.00 | 0.00 | 0.00 | 53 | 1008.8 |
| 20260506144252 | 58 | 18 | 3.0 | 13.0 | 0.00 | 0.00 | 0.00 | 52 | 1008.8 |
| 20260506143253 | 59 | 45 | 3.0 | 9.0 | 0.00 | 0.00 | 0.00 | 58 | 1008.8 |
| 20260506141752 | 59 | 36 | 3.0 | 8.0 | 0.00 | 0.00 | 0.00 | 56 | 1008.9 |
| 20260506141252 | 59 | 11 | 3.0 | 12.0 | 0.00 | 0.00 | 0.00 | 53 | 1008.9 |
| 20260506140752 | 59 | 8 | 2.0 | 7.0 | 0.00 | 0.00 | 0.00 | 56 | 1008.8 |
| 20260506140253 | 59 | 31 | 3.0 | 8.0 | 0.00 | 0.00 | 0.00 | 54 | 1008.8 |
| 20260506134752 | 60 | 55 | 3.0 | 9.0 | 0.00 | 0.00 | 0.00 | 56 | 1008.8 |
| 20260506134253 | 60 | 22 | 5.0 | 9.0 | 0.00 | 0.00 | 0.00 | 51 | 1008.8 |
| 20260506133752 | 60 | 79 | 3.0 | 8.0 | 0.00 | 0.00 | 0.00 | 55 | 1008.8 |
| 20260506133252 | 60 | 50 | 5.0 | 9.0 | 0.00 | 0.00 | 0.00 | 53 | 1008.8 |
| 20260506131753 | 60 | 14 | 3.0 | 10.0 | 0.00 | 0.00 | 0.00 | 54 | 1008.6 |
| 20260506130752 | 59 | 18 | 5.0 | 12.0 | 0.00 | 0.00 | 0.00 | 52 | 1008.6 |
| 20260506124752 | 60 | 0 | 3.0 | 10.0 | 0.00 | 0.00 | 0.00 | 53 | 1008.5 |
| 20260506123753 | 61 | 17 | 2.0 | 9.0 | 0.00 | 0.00 | 0.00 | 56 | 1008.4 |
| 20260506123254 | 60 | 36 | 5.0 | 12.0 | 0.00 | 0.00 | 0.00 | 54 | 1008.4 |
| 20260506121252 | 62 | 45 | 4.0 | 13.0 | 0.00 | 0.00 | 0.00 | 51 | 1008.3 |
| 20260506120753 | 62 | 40 | 5.0 | 14.0 | 0.00 | 0.00 | 0.00 | 56 | 1008.3 |
| 20260506120252 | 61 | 17 | 5.0 | 13.0 | 0.00 | 0.00 | 0.00 | 54 | 1008.3 |
| 20260506114253 | 61 | 34 | 6.0 | 14.0 | 0.00 | 0.00 | 0.00 | 53 | 1008.5 |
| 20260506111753 | 60 | 38 | 5.0 | 14.0 | 0.00 | 0.00 | 0.00 | 53 | 1008.6 |
| 20260506111253 | 59 | 30 | 3.0 | 9.0 | 0.00 | 0.00 | 0.00 | 54 | 1008.6 |
| 20260506110753 | 59 | 46 | 5.0 | 13.0 | 0.00 | 0.00 | 0.00 | 55 | 1008.6 |
| 20260506110253 | 60 | 51 | 6.0 | 15.0 | 0.00 | 0.00 | 0.00 | 52 | 1008.7 |
| 20260506104753 | 61 | 43 | 6.0 | 13.0 | 0.00 | 0.00 | 0.00 | 52 | 1008.7 |
| 20260506104253 | 61 | 30 | 3.0 | 14.0 | 0.00 | 0.00 | 0.00 | 56 | 1008.8 |
| 20260506103753 | 60 | 21 | 8.0 | 15.0 | 0.00 | 0.00 | 0.00 | 52 | 1008.8 |
| 20260506101254 | 59 | 46 | 5.0 | 16.0 | 0.00 | 0.00 | 0.00 | 54 | 1008.9 |
| 20260506100753 | 58 | 43 | 6.0 | 15.0 | 0.00 | 0.00 | 0.00 | 53 | 1009.0 |
| 20260506100253 | 58 | 16 | 5.0 | 14.0 | 0.00 | 0.00 | 0.00 | 56 | 1009.0 |
| 20260506094753 | 58 | 32 | 4.0 | 13.0 | 0.00 | 0.00 | 0.00 | 56 | 1009.0 |
| 20260506094253 | 57 | 21 | 5.0 | 13.0 | 0.00 | 0.00 | 0.00 | 55 | 1009.0 |
| 20260506093253 | 57 | 41 | 5.0 | 16.0 | 0.00 | 0.00 | 0.00 | 55 | 1009.0 |
| 20260506091754 | 57 | 18 | 5.0 | 16.0 | 0.00 | 0.00 | 0.00 | 58 | 1009.1 |
| 20260506091253 | 56 | 32 | 7.0 | 16.0 | 0.00 | 0.00 | 0.00 | 56 | 1009.0 |
| 20260506090253 | 57 | 14 | 6.0 | 15.0 | 0.00 | 0.00 | 0.00 | 59 | 1009.0 |
| 20260506084753 | 57 | 11 | 7.0 | 12.0 | 0.00 | 0.00 | 0.00 | 56 | 1009.0 |
| 20260506084253 | 57 | 38 | 5.0 | 15.0 | 0.00 | 0.00 | 0.00 | 57 | 1009.0 |
| 20260506083753 | 57 | 35 | 6.0 | 14.0 | 0.00 | 0.00 | 0.00 | 56 | 1009.0 |